Vorticity
14 5 1 1 8 3 5 4 7 7 7 6 6 7 7 7 8 9 7 6 6 6
5 8 9 5 5 11 9 7 5 5 6 6 4 6 5 5 6 7 8 8 7 7
3 3 3 7 4 13 12 13 7 10 7 6 5 5 4 6 6 6 7 8 7 7
11 11 2 7 -2 4 12 9 6 12 -1 15 7 3 4 9 6 5 7 7 7 7
-2 26 23 16 8 26 1 18 -7 -3 8 -1 11 2 12 6 11 9 7 7 8 6
9 8 8 -1 6 4 2 2 11 11 9 13 -1 10 3 13 8 7 10 8 7 6
5 10 11 13 12 6 5 5 4 6 4 4 2 -2 5 1 4 6 7 7 7 8
4 3 6 8 11 12 11 9 7 7 6 5 3 1 9 -1 15 -2 5 8 7 6
9 5 3 4 5 7 8 9 7 13 4 2 3 4 -3 18 7 1 7 3 3 5
16 11 12 9 7 4 4 4 3 5 9 3 8 7 16 20 19 8 8 8 9 9
20 20 18 11 6 9 14 15 5 6 5 5 5 4 7 2 9 4 8 12 10 11
17 17 15 18 27 22 13 12 17 16 16 13 15 17 13 6 6 10 17 5 6 13
7 7 14 14 13 15 16 14 13 9 11 12 9 12 8 14 1 -0 -2 15 -5 7
9 10 9 10 12 13 11 13 15 14 12 12 15 15 16 18 21 26 26 26 26 26
Height
3143 3145 3146 3148 3150 3151 3153 3155 3156 3157 3158 3158 3159 3159 3160 3161 3162 3162 3163 3163 3163 3163
3137 3139 3142 3144 3146 3147 3149 3150 3152 3152 3153 3154 3154 3155 3155 3155 3156 3157 3157 3158 3158 3158
3132 3134 3136 3138 3139 3141 3142 3143 3145 3146 3147 3148 3148 3149 3149 3150 3151 3150 3152 3152 3152 3152
3124 3126 3129 3132 3134 3135 3136 3137 3139 3140 3141 3141 3143 3143 3143 3144 3145 3144 3145 3146 3146 3146
3119 3120 3121 3123 3126 3128 3130 3131 3132 3133 3135 3135 3136 3137 3136 3137 3138 3137 3138 3139 3138 3139
3111 3113 3115 3117 3119 3121 3122 3124 3125 3125 3127 3128 3129 3129 3129 3129 3129 3129 3130 3130 3130 3131
3104 3105 3107 3108 3111 3112 3113 3115 3116 3118 3119 3120 3121 3121 3121 3121 3121 3121 3121 3121 3121 3121
3096 3097 3098 3099 3101 3103 3104 3106 3108 3109 3110 3111 3112 3112 3112 3113 3111 3111 3111 3111 3111 3112
3086 3088 3089 3090 3091 3093 3094 3096 3097 3098 3100 3101 3102 3102 3103 3101 3101 3101 3101 3101 3102 3102
3075 3077 3079 3080 3081 3082 3083 3085 3086 3087 3088 3090 3090 3090 3090 3090 3091 3091 3090 3090 3090 3091
3063 3065 3066 3068 3069 3070 3072 3074 3075 3076 3077 3078 3079 3079 3078 3079 3079 3078 3078 3078 3078 3078
3052 3053 3053 3054 3055 3056 3058 3060 3061 3062 3063 3064 3065 3065 3065 3066 3066 3066 3066 3066 3066 3065
3042 3043 3043 3044 3044 3045 3046 3048 3049 3050 3050 3050 3050 3051 3051 3052 3051 3052 3052 3051 3051 3051
3031 3032 3032 3033 3034 3035 3036 3036 3037 3038 3038 3038 3038 3037 3036 3037 3038 3038 3038 3038 3039 3038